Weather History for Memphis, TN

Change the Weather History Date:

Saturday, January 18, 2014

  Actual Average Record
Temperature  
Mean Temperature 38 °F 41 °F  
Max Temperature 55 °F 50 °F 73 °F (1974)
Min Temperature 20 °F 32 °F -2 °F (1930)
Degree Days  
Heating Degree Days 27 24  
Month to date heating degree days 492 432  
Since 1 July heating degree days 1762 1596  
Cooling Degree Days 0 0  
Month to date cooling degree days 0 0  
Year to date cooling degree days 0 0  
Moisture  
Dew Point 20 °F    
Average Humidity 46    
Maximum Humidity 68    
Minimum Humidity 24    
Precipitation  
Precipitation 0.00 in 0.12 in 3.85 in (1995)
Month to date precipitation 3.16 2.31  
Year to date precipitation 3.16 2.31  
Snow  
Snow 0.00 in 0.10 in 7.60 in (1893)
Month to date snowfall T 1.1  
Since 1 July snowfall T 1.3  
Snow Depth 0.00 in    
Sea Level Pressure  
Sea Level Pressure 30.01 in    
Wind  
Wind Speed 12 mph (SW)    
Max Wind Speed 33 mph    
Max Gust Speed 43 mph    
Visibility 10 miles    
Events      
T = Trace of Precipitation, MM = Missing Value Source: NWS Daily Summary

Daily Weather History Graph

Daily Weather History Graph

Search for Another Location

Airport:

Trip Planner

Search our weather history database for the weather conditions in past years. The results will help you decide how hot, cold, wet, or windy it might be!

Date:

Astronomy

Jan. 18, 2014 Rise Set
Actual Time 7:06 AM CST 5:14 PM CST
Civil Twilight 6:39 AM CST 5:41 PM CST
Nautical Twilight 6:08 AM CST 6:12 PM CST
Astronomical Twilight 5:37 AM CST 6:43 PM CST
Moon 7:48 PM CST (1/18) 8:13 AM CST (1/18)
Length of Visible Light 11h 02m
Length of Day
10h 07m
Waning Gibbous, 94% of the Moon is Illuminated
Jan 18
Waning Gibbous
Jan 23
Last Quarter
Jan 30
New
Feb 6
First Quarter
Feb 14
Full

Hourly Weather History & Observations

Time (CST) Temp. Windchill Dew Point Humidity Pressure Visibility Wind Dir Wind Speed Gust Speed Precip Events Conditions
12:54 AM 24.1 °F - 12.9 °F 62% 30.19 in 10.0 mi Calm Calm - N/A   Clear
1:54 AM 24.1 °F - 14.0 °F 65% 30.19 in 10.0 mi Calm Calm - N/A   Partly Cloudy
2:54 AM 23.0 °F - 14.0 °F 68% 30.19 in 10.0 mi Calm Calm - N/A   Partly Cloudy
3:54 AM 24.1 °F 15.2 °F 12.9 °F 62% 30.17 in 10.0 mi SSW 8.1 mph - N/A   Partly Cloudy
4:54 AM 26.1 °F 17.6 °F 15.1 °F 63% 30.16 in 10.0 mi SSW 8.1 mph - N/A   Partly Cloudy
5:54 AM 25.0 °F 17.1 °F 16.0 °F 69% 30.15 in 10.0 mi South 6.9 mph - N/A   Mostly Cloudy
6:54 AM 25.0 °F 16.3 °F 12.9 °F 60% 30.14 in 10.0 mi South 8.1 mph - N/A   Partly Cloudy
7:54 AM 28.9 °F 19.2 °F 12.9 °F 51% 30.13 in 10.0 mi South 11.5 mph - N/A   Scattered Clouds
8:54 AM 34.0 °F 24.6 °F 14.0 °F 44% 30.11 in 10.0 mi SSW 13.8 mph 19.6 mph N/A   Mostly Cloudy
9:54 AM 39.0 °F 30.3 °F 15.1 °F 38% 30.08 in 10.0 mi SSW 16.1 mph 21.9 mph N/A   Scattered Clouds
10:54 AM 46.0 °F 38.5 °F 15.1 °F 29% 30.04 in 10.0 mi SSW 19.6 mph 39.1 mph N/A   Mostly Cloudy
11:54 AM 50.0 °F - 16.0 °F 26% 29.96 in 10.0 mi SW 23.0 mph 31.1 mph N/A   Scattered Clouds
12:54 PM 52.0 °F - 17.1 °F 25% 29.90 in 10.0 mi SW 24.2 mph 41.4 mph N/A   Partly Cloudy
1:54 PM 53.1 °F - 21.0 °F 29% 29.85 in 10.0 mi SW 27.6 mph 39.1 mph N/A   Partly Cloudy
2:54 PM 54.0 °F - 23.0 °F 30% 29.83 in 10.0 mi SSW 24.2 mph 35.7 mph N/A   Scattered Clouds
3:54 PM 55.0 °F - 23.0 °F 29% 29.84 in 10.0 mi SW 18.4 mph 33.4 mph N/A   Scattered Clouds
4:54 PM 54.0 °F - 25.0 °F 33% 29.86 in 10.0 mi SSW 15.0 mph 29.9 mph N/A   Mostly Cloudy
5:54 PM 53.1 °F - 27.0 °F 37% 29.87 in 10.0 mi SSW 12.7 mph 23.0 mph N/A   Mostly Cloudy
6:54 PM 50.0 °F - 28.0 °F 43% 29.88 in 10.0 mi SW 8.1 mph - N/A   Scattered Clouds
7:54 PM 48.9 °F - 28.9 °F 46% 29.91 in 10.0 mi West 8.1 mph - N/A   Mostly Cloudy
8:54 PM 48.0 °F - 30.0 °F 50% 29.92 in 10.0 mi West 3.5 mph - N/A   Mostly Cloudy
9:54 PM 48.9 °F - 26.1 °F 41% 29.93 in 10.0 mi NW 13.8 mph 21.9 mph N/A   Mostly Cloudy
10:54 PM 46.9 °F - 25.0 °F 42% 29.94 in 10.0 mi WNW 13.8 mph - N/A   Partly Cloudy
11:54 PM 46.0 °F 40.6 °F 24.1 °F 42% 29.96 in 10.0 mi WNW 11.5 mph - N/A   Clear